Preview of NWS' New Version of Forecast
This preview is not operational and should not be used for support decisions.

Regional Weather Roundup (RWR)

Issued by National Weather Service (NWS)

                            
000
ASUS42 KTBW 231617
RWRFL 
FLORIDA REGIONAL WEATHER ROUNDUP
NATIONAL WEATHER SERVICE TAMPA BAY RUSKIN FL
1200 PM EDT SAT MAR 23 2019

NOTE: "FAIR" INDICATES FEW OR NO CLOUDS BELOW 12,000 FEET WITH NO
SIGNIFICANT WEATHER AND/OR OBSTRUCTIONS TO VISIBILITY.

FLZ001>010-012>015-112-114-115-231700-
PANHANDLE FLORIDA
  
CITY           SKY/WX    TMP DP  RH WIND       PRES   REMARKS
PENSACOLA      FAIR      69  37  30 VRB6      30.26S                  
PENSACOLA NAS  FAIR      69  37  30 E9        30.26R                  
MILTON NAS     FAIR      69  37  30 MISG      30.27S                  
CRESTVIEW        N/A     71  34  25 NE9       30.28S                  
DUKE FIELD     FAIR      70  32  24 NE6       30.25F                  
VALPARAISO     FAIR      70  35  27 NE5       30.25S                  
PANAMA CITY    FAIR      70  32  24 VRB5      30.25S                  
TYNDALL AFB    FAIR      70  34  27 E7        30.25                   
APALACHICOLA   FAIR      70  35  27 E8        30.26R                  

STATION/POSITION SKY/WX   TEMP    WIND        PRES    WAVE   SWELL
                          AIR SEA DIR/SP/G            HT/PER HT/PER
                          (F)     (DEG/KT/KT) (MB)    (FT/S) (FT/S)
30.1N   87.6W                                 1025.4R   1
29.2N   88.2W                      50/  8/ 10 1025.4R   1
PANAMA CITY BEAC           67 65   50/  7/ 11 1025.1R
TOWER C                    62      60/ 11/ 11 1025.1R

$$
FLZ011-016>038-118-127-128-134-139-239-231700-
NORTH FLORIDA
  
CITY           SKY/WX    TMP DP  RH WIND       PRES   REMARKS
MARIANNA       FAIR      67  37  33 VRB5      30.27R                  
TALLAHASSEE    FAIR      70  37  29 N8        30.26R                  
PERRY          FAIR      70  36  28 E3        30.26S                  
LIVE OAK       SUNNY     68  30  24 CALM      30.25S                  
CROSS CITY     FAIR      70  33  25 E8        30.25S                  
LAKE CITY      FAIR      66  32  28 NE6       30.25S                  
GAINESVILLE    FAIR      73  35  25 E9        30.27S                  
WILLISTON        N/A    N/A N/A N/A MISG        N/A                   
PALATKA        FAIR      68  36  30 E10       30.26R                  
MAYPORT NAS    FAIR      64  45  49 N12       30.26R                  
JACKSONVILLE   FAIR      69  37  30 VRB5      30.25R                  
JAX NAS        FAIR      69  32  25 N7        30.26R                  
JAX CECIL      SUNNY    N/A N/A N/A N12       30.25R                  
FERNANDINA BEA FAIR      65  45  48 NE12      30.26R                  
ST AUGUSTINE   FAIR      66  45  46 NE9       30.27R                  
PALM COAST     SUNNY     70  34  26 N6        30.26R                  

STATION/POSITION SKY/WX   TEMP    WIND        PRES    WAVE   SWELL
                          AIR SEA DIR/SP/G            HT/PER HT/PER
                          (F)     (DEG/KT/KT) (MB)    (FT/S) (FT/S)
SHELL POINT      NOT AVBL
KEATON BEACH               67      40/  7/  9 1024.3F
CEDAR KEY                  66      70/  8/  9 1024.4R
FERNANDINA                 62 62  360/  7/ 12 1025.4R
30.7N   81.3W                 62                N/A     2/ 4
MAYPORT                    61 62   20/ 11/ 13 1024.8R
31.4N   80.9W              62 62   70/ 16/ 17 1023.9R   2/ 4
ST AUGUSTINE               61 63  360/  7/  8 1025.0R

$$
FLZ040-043>046-052-053-057-058-063-144-231700-
INTERIOR CENTRAL FLORIDA
  
CITY           SKY/WX    TMP DP  RH WIND       PRES   REMARKS
OCALA          FAIR      70  32  24 E8        30.25S                  
LEESBURG       FAIR      71  34  25 E8        30.25R                  
SANFORD        FAIR      71  37  28 MISG      30.24R                  
ORLANDO EXEC   FAIR      73  36  25 E6        30.24R                  
ORLANDO INTL   FAIR      73  34  23 NE7       30.23R                  
KISSIMMEE      FAIR      71  35  26 VRB5      30.25R                  
WINTER HAVEN   FAIR      72  39  30 E8G23     30.25R                  
LAKELAND       SUNNY     70  43  37 VRB5      30.24S                  
BARTOW         SUNNY     72  39  30 NE12      30.23R                  
SEBRING        FAIR      71  40  31 NE8       30.24S                  
OKEECHOBEE     FAIR      70  45  40 CALM      30.23S                  

$$
FLZ041-047-054-059-064-141-147-231700-
EAST CENTRAL FLORIDA
  
CITY           SKY/WX    TMP DP  RH WIND       PRES   REMARKS
ORMOND BEACH   SUNNY     68  46  45 N6        30.26R                  
DAYTONA BEACH  FAIR      70  46  42 NE12      30.25R                  
DELAND         FAIR      70  39  32 NE7       30.24S                  
NEW SMYRNA BEA SUNNY     70  46  43 NE9       30.26R                  
JFK SPACE CTR  FAIR      70  52  52 N7        30.23R HAZE             
TITUSVILLE     SUNNY     73  46  38 E9        30.24S                  
CAPE CANAVERAL FAIR      71  49  44 NE8       30.22R                  
PATRICK AFB    FAIR      70  53  53 N8        30.23                   
MELBOURNE      FAIR      71  49  45 NE10      30.23R                  
VERO BEACH     FAIR      73  54  51 N7        30.23R                  
FT PIERCE      FAIR      73  49  42 VRB5      30.23R                  
STUART         SUNNY     72  52  49 VRB6      30.24R                  

STATION/POSITION SKY/WX   TEMP    WIND        PRES    WAVE   SWELL
                          AIR SEA DIR/SP/G            HT/PER HT/PER
                          (F)     (DEG/KT/KT) (MB)    (FT/S) (FT/S)
28.5N   80.2W              65     330/ 10/ 12 1023.9R   3/10   2/10
28.9N   78.5W              71 74  350/  6/ 10 1023.4R   5/ 7   5/ 7
TRIDENT PIER               71 67   20/  5/  9 1024.8R
28.4N   80.5W                 67                N/A     1/11
27.5N   80.2W                 69                N/A     2/11

$$
FLZ050-056-061-142-242-148-248-149-249-151-251-155-255-
160-260-231700-
WEST CENTRAL FLORIDA
  
CITY           SKY/WX    TMP DP  RH WIND       PRES   REMARKS
CRYSTAL RIVER  FAIR      72  32  23 E8        30.25R                  
INVERNESS      FAIR      70  37  30 NE8       30.25S                  
BROOKSVILLE    FAIR      73  36  25 NE8       30.25R                  
CLEARWATER AIR FAIR      70  39  32 N7        30.24S                  
ST PETE CLEARW FAIR      70  43  37 NE8       30.24R                  
TAMPA INTL     FAIR      71  38  29 E6        30.24S                  
TAMPA EXEC     FAIR      72  45  37 NE5       30.25S                  
PLANT CITY     FAIR      73  41  31 E7        30.25S                  
MACDILL AFB    FAIR      70  40  33 E9        30.24                   
PETER O KNIGHT CLOUDY    72  43  35 NE9       30.24S                  
ST PETERSBURG  FAIR      68  48  48 E8        30.23R                  
SARASOTA       FAIR      72  43  35 E10       30.22R                  
VENICE         FAIR      73  45  35 NE13G24   30.23S                  

STATION/POSITION SKY/WX   TEMP    WIND        PRES    WAVE   SWELL
                          AIR SEA DIR/SP/G            HT/PER HT/PER
                          (F)     (DEG/KT/KT) (MB)    (FT/S) (FT/S)
27.3N   84.2W                 72                N/A     2/ 6
CLEARWATER BEACH           68 67   30/  6/  8 1024.0R
MIDDLE TAMPA BAY           63      40/  9/ 11 1024.1R
VENICE                     69 71   70/  8/ 12 1023.4S

$$
FLZ066-069-070-075>078-162-262-165-265-231700-
SOUTHWEST FLORIDA AND KEYS
  
CITY           SKY/WX    TMP DP  RH WIND       PRES   REMARKS
PUNTA GORDA    FAIR      70  46  42 NE9       30.24R                  
FT MYERS       FAIR      69  46  43 E7        30.22S                  
SOUTHWEST INTL FAIR      69  47  45 E8        30.22S                  
NAPLES         FAIR      69  50  50 VRB3      30.22S                  
MARCO ISLAND   FAIR      69  50  50 CALM      30.24R                  
IMMOKALEE      FAIR      73  48  40 VRB7      30.21S                  
MARATHON       FAIR      74  53  48 N10       30.21R                  
KEY WEST NAS   FAIR      74  51  44 NE8       30.21S                  
KEY WEST INTL  FAIR      73  53  49 E6        30.22R                  

STATION/POSITION SKY/WX   TEMP    WIND        PRES    WAVE   SWELL
                          AIR SEA DIR/SP/G            HT/PER HT/PER
                          (F)     (DEG/KT/KT) (MB)    (FT/S) (FT/S)
NAPLES                     68 70  110/  4/  7 1023.5R
26.0N   85.6W              70 79   30/  8/ 12 1023.9
DRY TORTUGAS               69      60/  9/ 10 1023.4R
SAND KEY                   68                 1023.1R
SOMBRERO KEY               68                 1022.4R
MOLASSES REEF              69 77   10/ 13     1022.8

$$
FLZ067-068-071>074-168-172>174-231700-
SOUTHEAST FLORIDA 
  
CITY           SKY/WX    TMP DP  RH WIND       PRES   REMARKS
W PALM BEACH   FAIR      74  52  46 VRB7      30.22S                  
FT LAUDER-EXEC FAIR      74  49  41 CALM      30.21S                  
FT LAUDERDALE  FAIR      74  51  44 VRB6      30.21R                  
POMPANO BEACH  FAIR      74  54  49 SE6       30.21S                  
PEMBROKE PINES FAIR      74  49  41 CALM      30.23S                  
OPA LOCKA      FAIR      74  50  42 VRB6      30.22S                  
MIAMI          FAIR      74  51  44 NE5       30.21F                  
WEST KENDALL   FAIR      75  52  44 VRB6      30.21S                  
HOMESTEAD      FAIR      74  56  53 NE8       30.20                   

STATION/POSITION SKY/WX   TEMP    WIND        PRES    WAVE   SWELL
                          AIR SEA DIR/SP/G            HT/PER HT/PER
                          (F)     (DEG/KT/KT) (MB)    (FT/S) (FT/S)
VIRGINIA KEY               72 76   10/  5/  9 1022.3S
LAKE WORTH                 70 74   10/  6/  7 1024.3R
FOWEY ROCKS                69 78  360/ 10/ 11 1023.5S
SETTLEMENT POINT           72     110/  6/  8 1023.3R

$$